Time,TemperatureF,DewpointF,PressureIn,WindDirection,WindDirectionDegrees,WindSpeedMPH,WindSpeedGustMPH,Humidity,HourlyPrecipIn,Conditions,Clouds,dailyrainin,SoftwareType,DateUTC
2013-01-18 07:28:00,29.0,4.7,30.12,WNW,293,16.0,16.0,35,0.00,,,0.00,Wunderground v.1.15,2013-01-18 14:28:00,
2013-01-18 07:33:00,28.8,4.5,30.09,WNW,284,15.0,18.0,35,0.00,,,0.00,Wunderground v.1.15,2013-01-18 14:33:00,
2013-01-18 07:38:00,28.8,4.5,30.09,WNW,282,15.0,16.0,35,0.00,,,0.00,Wunderground v.1.15,2013-01-18 14:38:00,
2013-01-18 07:43:00,29.7,4.1,30.08,West,281,15.0,18.0,33,0.00,,,0.00,Wunderground v.1.15,2013-01-18 14:43:00,
2013-01-18 07:48:00,30.4,4.0,30.08,West,278,11.0,18.0,32,0.00,,,0.00,Wunderground v.1.15,2013-01-18 14:48:00,
2013-01-18 07:54:00,30.3,4.6,30.08,West,269,13.0,18.0,33,0.00,,,0.00,Wunderground v.1.15,2013-01-18 14:54:00,
2013-01-18 07:59:00,30.0,4.3,30.09,West,281,12.0,17.0,33,0.00,,,0.00,Wunderground v.1.15,2013-01-18 14:59:00,
2013-01-18 08:04:00,30.3,4.6,30.09,West,279,10.0,15.0,33,0.00,,,0.00,Wunderground v.1.15,2013-01-18 15:04:00,
2013-01-18 08:09:00,30.6,4.2,30.09,West,271,11.0,15.0,32,0.00,,,0.00,Wunderground v.1.15,2013-01-18 15:09:00,
2013-01-18 08:14:00,31.3,4.1,30.09,West,273,11.0,15.0,31,0.00,,,0.00,Wunderground v.1.15,2013-01-18 15:14:00,
2013-01-18 08:19:00,32.1,4.8,30.09,West,266,13.0,15.0,31,0.00,,,0.00,Wunderground v.1.15,2013-01-18 15:19:00,
2013-01-18 08:24:00,32.7,4.6,30.09,West,265,12.0,15.0,30,0.00,,,0.00,Wunderground v.1.15,2013-01-18 15:24:00,
2013-01-18 08:29:00,32.7,4.6,30.11,West,259,13.0,15.0,30,0.00,,,0.00,Wunderground v.1.15,2013-01-18 15:29:00,
2013-01-18 08:34:00,33.2,3.6,30.11,West,280,15.0,17.0,28,0.00,,,0.00,Wunderground v.1.15,2013-01-18 15:34:00,
2013-01-18 08:39:00,33.5,4.6,30.11,West,276,13.0,17.0,29,0.00,,,0.00,Wunderground v.1.15,2013-01-18 15:39:00,
2013-01-18 08:44:00,33.5,4.6,30.10,West,269,11.0,13.0,29,0.00,,,0.00,Wunderground v.1.15,2013-01-18 15:44:00,
2013-01-18 08:49:00,34.1,4.3,30.10,West,271,12.0,13.0,28,0.00,,,0.00,Wunderground v.1.15,2013-01-18 15:49:00,
2013-01-18 08:54:00,34.6,4.8,30.10,West,278,9.0,12.0,28,0.00,,,0.00,Wunderground v.1.15,2013-01-18 15:54:00,
2013-01-18 08:59:00,34.9,5.0,30.11,West,270,12.0,14.0,28,0.00,,,0.00,Wunderground v.1.15,2013-01-18 15:59:00,
2013-01-18 09:04:00,35.8,5.8,30.11,West,271,15.0,16.0,28,0.00,,,0.00,Wunderground v.1.15,2013-01-18 16:04:00,
2013-01-18 09:09:00,36.9,5.1,30.11,WNW,289,15.0,17.0,26,0.00,,,0.00,Wunderground v.1.15,2013-01-18 16:09:00,
2013-01-18 09:14:00,38.0,5.2,30.08,WNW,293,16.0,17.0,25,0.00,,,0.00,Wunderground v.1.15,2013-01-18 16:14:00,
2013-01-18 09:19:00,38.8,5.0,30.08,North,0,14.0,18.0,24,0.00,,,0.00,Wunderground v.1.15,2013-01-18 16:19:00,
2013-01-18 09:24:00,39.6,5.7,30.08,West,265,12.0,18.0,24,0.00,,,0.00,Wunderground v.1.15,2013-01-18 16:24:00,
2013-01-18 09:29:00,40.6,5.6,30.10,West,260,14.0,14.0,23,0.00,,,0.00,Wunderground v.1.15,2013-01-18 16:29:00,
2013-01-18 09:34:00,41.5,5.4,30.10,West,259,15.0,19.0,22,0.00,,,0.00,Wunderground v.1.15,2013-01-18 16:34:00,
2013-01-18 09:39:00,42.1,5.9,30.10,West,261,13.0,14.0,22,0.00,,,0.00,Wunderground v.1.15,2013-01-18 16:39:00,
2013-01-18 09:44:00,42.3,5.1,30.08,West,259,25.0,25.0,21,0.00,,,0.00,Wunderground v.1.15,2013-01-18 16:44:00,
2013-01-18 09:50:00,42.8,4.4,30.08,West,261,18.0,20.0,20,0.00,,,0.00,Wunderground v.1.15,2013-01-18 16:50:00,
2013-01-18 09:55:00,43.3,4.8,30.08,West,281,23.0,25.0,20,0.00,,,0.00,Wunderground v.1.15,2013-01-18 16:55:00,
2013-01-18 10:00:00,43.5,5.0,30.07,WSW,253,14.0,19.0,20,0.00,,,0.00,Wunderground v.1.15,2013-01-18 17:00:00,
2013-01-18 10:05:00,43.8,5.3,30.07,West,262,16.0,26.0,20,0.00,,,0.00,Wunderground v.1.15,2013-01-18 17:05:00,
2013-01-18 10:10:00,44.1,5.5,30.07,West,273,22.0,25.0,20,0.00,,,0.00,Wunderground v.1.15,2013-01-18 17:10:00,
2013-01-18 10:15:00,44.5,5.8,30.07,West,272,20.0,25.0,20,0.00,,,0.00,Wunderground v.1.15,2013-01-18 17:15:00,
2013-01-18 10:20:00,44.9,5.1,30.07,West,259,25.0,26.0,19,0.00,,,0.00,Wunderground v.1.15,2013-01-18 17:20:00,
2013-01-18 10:25:00,44.8,5.0,30.07,WNW,288,27.0,30.0,19,0.00,,,0.00,Wunderground v.1.15,2013-01-18 17:25:00,
2013-01-18 10:30:00,44.5,5.8,30.05,West,280,20.0,27.0,20,0.00,,,0.00,Wunderground v.1.15,2013-01-18 17:30:00,
2013-01-18 10:36:00,44.8,5.0,30.05,West,272,14.0,28.0,19,0.00,,,0.00,Wunderground v.1.15,2013-01-18 17:36:00,
2013-01-18 10:41:00,45.4,5.5,30.05,West,276,19.0,23.0,19,0.00,,,0.00,Wunderground v.1.15,2013-01-18 17:41:00,
2013-01-18 10:46:00,45.5,5.6,30.05,West,270,18.0,28.0,19,0.00,,,0.00,Wunderground v.1.15,2013-01-18 17:46:00,
2013-01-18 10:51:00,46.0,6.0,30.05,West,272,22.0,29.0,19,0.00,,,0.00,Wunderground v.1.15,2013-01-18 17:51:00,
2013-01-18 10:56:00,45.8,5.8,30.05,WNW,297,25.0,31.0,19,0.00,,,0.00,Wunderground v.1.15,2013-01-18 17:56:00,
2013-01-18 11:01:00,46.1,4.9,30.03,North,0,19.0,31.0,18,0.00,,,0.00,Wunderground v.1.15,2013-01-18 18:01:00,
2013-01-18 11:06:00,45.8,4.6,30.03,WNW,300,17.0,32.0,18,0.00,,,0.00,Wunderground v.1.15,2013-01-18 18:06:00,
2013-01-18 11:11:00,46.0,6.0,30.03,West,276,18.0,29.0,19,0.00,,,0.00,Wunderground v.1.15,2013-01-18 18:11:00,
2013-01-18 11:16:00,46.4,5.1,30.02,WNW,288,28.0,33.0,18,0.00,,,0.00,Wunderground v.1.15,2013-01-18 18:16:00,
2013-01-18 11:21:00,46.0,6.0,30.02,North,0,26.0,30.0,19,0.00,,,0.00,Wunderground v.1.15,2013-01-18 18:21:00,
2013-01-18 11:26:00,46.2,6.1,30.02,West,281,24.0,30.0,19,0.00,,,0.00,Wunderground v.1.15,2013-01-18 18:26:00,
2013-01-18 11:31:00,46.5,5.2,30.00,West,263,24.0,26.0,18,0.00,,,0.00,Wunderground v.1.15,2013-01-18 18:31:00,
2013-01-18 11:36:00,46.4,5.1,30.00,West,278,20.0,31.0,18,0.00,,,0.00,Wunderground v.1.15,2013-01-18 18:36:00,
2013-01-18 11:41:00,46.2,4.9,30.00,WNW,300,26.0,32.0,18,0.00,,,0.00,Wunderground v.1.15,2013-01-18 18:41:00,
2013-01-18 11:46:00,46.8,5.4,29.99,West,266,21.0,32.0,18,0.00,,,0.00,Wunderground v.1.15,2013-01-18 18:46:00,
2013-01-18 11:51:00,46.8,5.4,29.99,West,264,22.0,32.0,18,0.00,,,0.00,Wunderground v.1.15,2013-01-18 18:51:00,
2013-01-18 11:56:00,47.4,5.9,29.99,North,0,27.0,32.0,18,0.00,,,0.00,Wunderground v.1.15,2013-01-18 18:56:00,
2013-01-18 12:01:00,47.4,5.9,29.97,WNW,286,31.0,32.0,18,0.00,,,0.00,Wunderground v.1.15,2013-01-18 19:01:00,
2013-01-18 12:06:00,47.3,5.9,29.97,WNW,287,34.0,35.0,18,0.00,,,0.00,Wunderground v.1.15,2013-01-18 19:06:00,
2013-01-18 12:11:00,47.3,5.9,29.97,West,271,33.0,33.0,18,0.00,,,0.00,Wunderground v.1.15,2013-01-18 19:11:00,
2013-01-18 12:16:00,48.0,5.2,29.98,West,280,29.0,33.0,17,0.00,,,0.00,Wunderground v.1.15,2013-01-18 19:16:00,
2013-01-18 12:21:00,48.2,5.3,29.98,WNW,290,29.0,32.0,17,0.00,,,0.00,Wunderground v.1.15,2013-01-18 19:21:00,
2013-01-18 12:26:00,48.2,5.3,29.98,North,0,20.0,32.0,17,0.00,,,0.00,Wunderground v.1.15,2013-01-18 19:26:00,
2013-01-18 12:31:00,47.4,4.7,29.99,West,268,24.0,32.0,17,0.00,,,0.00,Wunderground v.1.15,2013-01-18 19:31:00,
2013-01-18 12:36:00,48.2,5.3,29.99,WNW,285,31.0,32.0,17,0.00,,,0.00,Wunderground v.1.15,2013-01-18 19:36:00,
2013-01-18 12:42:00,48.3,5.4,29.99,WNW,292,23.0,28.0,17,0.00,,,0.00,Wunderground v.1.15,2013-01-18 19:42:00,
2013-01-18 12:47:00,48.3,5.4,29.98,WNW,285,18.0,33.0,17,0.00,,,0.00,Wunderground v.1.15,2013-01-18 19:47:00,
2013-01-18 12:52:00,48.5,5.6,29.98,West,275,19.0,33.0,17,0.00,,,0.00,Wunderground v.1.15,2013-01-18 19:52:00,
2013-01-18 12:57:00,48.3,5.4,29.98,WNW,290,23.0,34.0,17,0.00,,,0.00,Wunderground v.1.15,2013-01-18 19:57:00,
2013-01-18 13:02:00,48.0,5.2,29.97,West,261,20.0,27.0,17,0.00,,,0.00,Wunderground v.1.15,2013-01-18 20:02:00,
2013-01-18 13:07:00,48.3,5.4,29.97,North,0,26.0,32.0,17,0.00,,,0.00,Wunderground v.1.15,2013-01-18 20:07:00,
2013-01-18 13:12:00,48.3,5.4,29.97,West,279,19.0,30.0,17,0.00,,,0.00,Wunderground v.1.15,2013-01-18 20:12:00,
2013-01-18 13:17:00,48.3,5.4,29.97,WNW,282,22.0,31.0,17,0.00,,,0.00,Wunderground v.1.15,2013-01-18 20:17:00,
2013-01-18 13:23:00,48.6,5.7,29.97,WNW,284,17.0,30.0,17,0.00,,,0.00,Wunderground v.1.15,2013-01-18 20:23:00,
2013-01-18 13:28:00,48.6,4.3,29.97,West,263,23.0,30.0,16,0.00,,,0.00,Wunderground v.1.15,2013-01-18 20:28:00,
2013-01-18 13:33:00,48.8,5.8,29.96,West,274,21.0,30.0,17,0.00,,,0.00,Wunderground v.1.15,2013-01-18 20:33:00,
2013-01-18 13:38:00,48.8,4.5,29.96,West,271,19.0,32.0,16,0.00,,,0.00,Wunderground v.1.15,2013-01-18 20:38:00,
2013-01-18 13:43:00,49.4,5.0,29.96,West,278,19.0,29.0,16,0.00,,,0.00,Wunderground v.1.15,2013-01-18 20:43:00,
2013-01-18 13:48:00,48.9,4.6,29.96,WNW,288,25.0,33.0,16,0.00,,,0.00,Wunderground v.1.15,2013-01-18 20:48:00,
2013-01-18 13:53:00,48.8,4.5,29.96,West,274,20.0,27.0,16,0.00,,,0.00,Wunderground v.1.15,2013-01-18 20:53:00,
2013-01-18 13:58:00,48.9,4.6,29.96,West,281,20.0,28.0,16,0.00,,,0.00,Wunderground v.1.15,2013-01-18 20:58:00,
2013-01-18 14:03:00,49.1,4.8,29.96,West,280,25.0,28.0,16,0.00,,,0.00,Wunderground v.1.15,2013-01-18 21:03:00,
2013-01-18 14:08:00,48.5,5.6,29.96,West,273,20.0,31.0,17,0.00,,,0.00,Wunderground v.1.15,2013-01-18 21:08:00,
2013-01-18 14:13:00,48.6,5.7,29.96,West,277,22.0,31.0,17,0.00,,,0.00,Wunderground v.1.15,2013-01-18 21:13:00,
2013-01-18 14:18:00,48.2,5.3,29.96,WNW,285,22.0,33.0,17,0.00,,,0.00,Wunderground v.1.15,2013-01-18 21:18:00,
2013-01-18 14:23:00,48.2,5.3,29.96,West,273,28.0,29.0,17,0.00,,,0.00,Wunderground v.1.15,2013-01-18 21:23:00,
2013-01-18 14:28:00,48.2,5.3,29.97,WNW,294,25.0,30.0,17,0.00,,,0.00,Wunderground v.1.15,2013-01-18 21:28:00,
2013-01-18 14:33:00,47.9,5.1,29.97,West,262,21.0,33.0,17,0.00,,,0.00,Wunderground v.1.15,2013-01-18 21:33:00,
2013-01-18 14:39:00,47.9,5.1,29.97,West,281,23.0,33.0,17,0.00,,,0.00,Wunderground v.1.15,2013-01-18 21:39:00,
2013-01-18 14:44:00,48.0,5.2,29.96,West,265,15.0,26.0,17,0.00,,,0.00,Wunderground v.1.15,2013-01-18 21:44:00,
2013-01-18 14:49:00,47.7,4.9,29.96,WNW,283,24.0,30.0,17,0.00,,,0.00,Wunderground v.1.15,2013-01-18 21:49:00,
2013-01-18 14:54:00,47.6,4.9,29.96,West,274,17.0,31.0,17,0.00,,,0.00,Wunderground v.1.15,2013-01-18 21:54:00,
2013-01-18 14:59:00,47.4,5.9,29.95,West,279,23.0,31.0,18,0.00,,,0.00,Wunderground v.1.15,2013-01-18 21:59:00,
2013-01-18 15:04:00,47.4,7.1,29.95,West,280,26.0,28.0,19,0.00,,,0.00,Wunderground v.1.15,2013-01-18 22:04:00,
2013-01-18 15:09:00,47.3,7.0,29.95,WNW,282,27.0,32.0,19,0.00,,,0.00,Wunderground v.1.15,2013-01-18 22:09:00,
2013-01-18 15:14:00,47.3,7.0,29.96,West,259,26.0,28.0,19,0.00,,,0.00,Wunderground v.1.15,2013-01-18 22:14:00,
2013-01-18 15:19:00,47.1,6.9,29.96,West,277,25.0,31.0,19,0.00,,,0.00,Wunderground v.1.15,2013-01-18 22:19:00,
2013-01-18 15:24:00,47.0,6.8,29.96,West,263,29.0,30.0,19,0.00,,,0.00,Wunderground v.1.15,2013-01-18 22:24:00,
2013-01-18 15:29:00,46.8,7.8,29.95,WNW,283,21.0,30.0,20,0.00,,,0.00,Wunderground v.1.15,2013-01-18 22:29:00,
2013-01-18 15:34:00,46.7,7.7,29.95,West,277,15.0,24.0,20,0.00,,,0.00,Wunderground v.1.15,2013-01-18 22:34:00,
2013-01-18 15:39:00,46.7,7.7,29.95,WNW,285,18.0,26.0,20,0.00,,,0.00,Wunderground v.1.15,2013-01-18 22:39:00,
2013-01-18 15:44:00,46.0,7.1,29.97,North,0,21.0,28.0,20,0.00,,,0.00,Wunderground v.1.15,2013-01-18 22:44:00,
2013-01-18 15:49:00,45.4,6.6,29.97,West,266,19.0,28.0,20,0.00,,,0.00,Wunderground v.1.15,2013-01-18 22:49:00,
2013-01-18 15:54:00,45.5,7.8,29.97,WNW,285,16.0,26.0,21,0.00,,,0.00,Wunderground v.1.15,2013-01-18 22:54:00,
2013-01-18 15:59:00,45.7,6.8,29.96,West,280,20.0,29.0,20,0.00,,,0.00,Wunderground v.1.15,2013-01-18 22:59:00,
2013-01-18 16:04:00,45.5,6.7,29.96,West,276,22.0,24.0,20,0.00,,,0.00,Wunderground v.1.15,2013-01-18 23:04:00,
2013-01-18 16:10:00,45.5,6.7,29.96,West,278,15.0,20.0,20,0.00,,,0.00,Wunderground v.1.15,2013-01-18 23:10:00,
2013-01-18 16:15:00,45.7,6.8,29.95,West,260,20.0,28.0,20,0.00,,,0.00,Wunderground v.1.15,2013-01-18 23:15:00,
2013-01-18 16:20:00,45.5,6.7,29.95,West,269,14.0,20.0,20,0.00,,,0.00,Wunderground v.1.15,2013-01-18 23:20:00,
2013-01-18 16:25:00,45.2,6.4,29.95,West,260,23.0,24.0,20,0.00,,,0.00,Wunderground v.1.15,2013-01-18 23:25:00,
2013-01-18 16:30:00,45.1,6.3,29.95,West,277,14.0,20.0,20,0.00,,,0.00,Wunderground v.1.15,2013-01-18 23:30:00,
2013-01-18 16:35:00,44.8,7.2,29.95,West,268,18.0,24.0,21,0.00,,,0.00,Wunderground v.1.15,2013-01-18 23:35:00,
2013-01-18 16:40:00,44.2,6.7,29.95,West,270,17.0,21.0,21,0.00,,,0.00,Wunderground v.1.15,2013-01-18 23:40:00,
2013-01-18 16:45:00,43.6,7.2,29.95,West,259,20.0,23.0,22,0.00,,,0.00,Wunderground v.1.15,2013-01-18 23:45:00,
2013-01-18 16:50:00,43.5,7.1,29.95,West,272,19.0,22.0,22,0.00,,,0.00,Wunderground v.1.15,2013-01-18 23:50:00,
2013-01-18 16:55:00,43.5,7.1,29.95,West,264,14.0,22.0,22,0.00,,,0.00,Wunderground v.1.15,2013-01-18 23:55:00,
2013-01-18 17:00:00,43.2,6.8,29.96,West,266,15.0,17.0,22,0.00,,,0.00,Wunderground v.1.15,2013-01-19 00:00:00,
2013-01-18 17:05:00,42.8,6.5,29.96,West,269,14.0,21.0,22,0.00,,,0.00,Wunderground v.1.15,2013-01-19 00:05:00,
2013-01-18 17:10:00,42.3,7.1,29.96,WNW,282,17.0,17.0,23,0.00,,,0.00,Wunderground v.1.15,2013-01-19 00:10:00,
2013-01-18 17:16:00,41.9,6.7,29.96,West,263,13.0,20.0,23,0.00,,,0.00,Wunderground v.1.15,2013-01-19 00:16:00,
2013-01-18 17:21:00,40.5,7.4,29.96,WSW,255,9.0,16.0,25,0.00,,,0.00,Wunderground v.1.15,2013-01-19 00:21:00,
2013-01-18 17:26:00,39.1,7.9,29.96,WSW,252,13.0,18.0,27,0.00,,,0.00,Wunderground v.1.15,2013-01-19 00:26:00,
2013-01-18 17:31:00,39.1,7.0,29.98,West,272,15.0,17.0,26,0.00,,,0.00,Wunderground v.1.15,2013-01-19 00:31:00,
2013-01-18 17:36:00,39.8,6.8,29.98,West,266,14.0,21.0,25,0.00,,,0.00,Wunderground v.1.15,2013-01-19 00:36:00,
2013-01-18 17:41:00,40.1,7.0,29.98,West,279,14.0,17.0,25,0.00,,,0.00,Wunderground v.1.15,2013-01-19 00:41:00,
2013-01-18 17:46:00,39.8,7.6,29.97,West,271,11.0,17.0,26,0.00,,,0.00,Wunderground v.1.15,2013-01-19 00:46:00,
2013-01-18 17:51:00,39.1,7.0,29.97,WSW,255,6.0,13.0,26,0.00,,,0.00,Wunderground v.1.15,2013-01-19 00:51:00,
2013-01-18 17:56:00,37.6,7.4,29.97,WSW,248,6.0,13.0,28,0.00,,,0.00,Wunderground v.1.15,2013-01-19 00:56:00,
2013-01-18 18:01:00,36.5,6.4,29.99,West,271,8.0,9.0,28,0.00,,,0.00,Wunderground v.1.15,2013-01-19 01:01:00,
2013-01-18 18:06:00,36.6,6.5,29.99,West,276,11.0,12.0,28,0.00,,,0.00,Wunderground v.1.15,2013-01-19 01:06:00,
2013-01-18 18:11:00,37.2,7.0,29.99,West,281,12.0,15.0,28,0.00,,,0.00,Wunderground v.1.15,2013-01-19 01:11:00,
2013-01-18 18:16:00,38.2,7.9,29.98,North,0,14.0,15.0,28,0.00,,,0.00,Wunderground v.1.15,2013-01-19 01:16:00,
2013-01-18 18:21:00,38.8,7.6,29.98,West,274,11.0,15.0,27,0.00,,,0.00,Wunderground v.1.15,2013-01-19 01:21:00,
2013-01-18 18:26:00,38.9,7.7,29.98,WNW,285,11.0,15.0,27,0.00,,,0.00,Wunderground v.1.15,2013-01-19 01:26:00,
2013-01-18 18:32:00,39.3,8.0,29.99,WNW,285,13.0,16.0,27,0.00,,,0.00,Wunderground v.1.15,2013-01-19 01:32:00,
2013-01-18 18:37:00,39.3,8.0,29.99,West,271,12.0,17.0,27,0.00,,,0.00,Wunderground v.1.15,2013-01-19 01:37:00,
2013-01-18 18:42:00,39.6,8.3,29.99,West,272,16.0,20.0,27,0.00,,,0.00,Wunderground v.1.15,2013-01-19 01:42:00,
2013-01-18 18:47:00,39.8,7.6,29.98,West,281,14.0,20.0,26,0.00,,,0.00,Wunderground v.1.15,2013-01-19 01:47:00,
2013-01-18 18:52:00,39.9,7.7,29.98,West,269,13.0,20.0,26,0.00,,,0.00,Wunderground v.1.15,2013-01-19 01:52:00,
2013-01-18 18:57:00,39.8,7.6,29.98,West,268,10.0,20.0,26,0.00,,,0.00,Wunderground v.1.15,2013-01-19 01:57:00,
2013-01-18 19:02:00,39.3,8.0,29.99,West,280,9.0,14.0,27,0.00,,,0.00,Wunderground v.1.15,2013-01-19 02:02:00,
2013-01-18 19:08:00,38.6,7.4,29.99,West,280,6.0,14.0,27,0.00,,,0.00,Wunderground v.1.15,2013-01-19 02:08:00,
2013-01-18 19:13:00,38.3,8.0,29.99,WNW,282,7.0,13.0,28,0.00,,,0.00,Wunderground v.1.15,2013-01-19 02:13:00,
2013-01-18 19:18:00,38.3,8.0,30.01,WNW,288,11.0,14.0,28,0.00,,,0.00,Wunderground v.1.15,2013-01-19 02:18:00,
2013-01-18 19:23:00,38.9,7.7,30.01,WNW,290,10.0,17.0,27,0.00,,,0.00,Wunderground v.1.15,2013-01-19 02:23:00,
2013-01-18 19:28:00,39.1,7.9,30.01,WNW,284,18.0,21.0,27,0.00,,,0.00,Wunderground v.1.15,2013-01-19 02:28:00,
2013-01-18 19:33:00,39.6,8.3,29.99,WNW,285,13.0,18.0,27,0.00,,,0.00,Wunderground v.1.15,2013-01-19 02:33:00,
2013-01-18 19:38:00,39.5,8.2,29.99,North,0,12.0,18.0,27,0.00,,,0.00,Wunderground v.1.15,2013-01-19 02:38:00,
2013-01-18 19:43:00,39.1,7.9,29.99,West,274,16.0,18.0,27,0.00,,,0.00,Wunderground v.1.15,2013-01-19 02:43:00,
2013-01-18 19:48:00,39.1,7.9,29.98,WNW,285,15.0,18.0,27,0.00,,,0.00,Wunderground v.1.15,2013-01-19 02:48:00,
2013-01-18 19:53:00,38.9,7.7,29.98,West,279,11.0,17.0,27,0.00,,,0.00,Wunderground v.1.15,2013-01-19 02:53:00,
2013-01-18 19:58:00,39.1,7.9,29.98,WNW,284,17.0,19.0,27,0.00,,,0.00,Wunderground v.1.15,2013-01-19 02:58:00,
2013-01-18 20:03:00,39.3,8.0,29.98,West,275,20.0,22.0,27,0.00,,,0.00,Wunderground v.1.15,2013-01-19 03:03:00,
2013-01-18 20:08:00,39.5,8.2,29.98,WNW,288,15.0,22.0,27,0.00,,,0.00,Wunderground v.1.15,2013-01-19 03:08:00,
2013-01-18 20:13:00,39.3,8.0,29.98,WNW,283,16.0,18.0,27,0.00,,,0.00,Wunderground v.1.15,2013-01-19 03:13:00,
2013-01-18 20:18:00,39.3,8.0,29.98,West,279,15.0,19.0,27,0.00,,,0.00,Wunderground v.1.15,2013-01-19 03:18:00,
2013-01-18 20:23:00,39.3,8.0,29.98,WNW,283,20.0,20.0,27,0.00,,,0.00,Wunderground v.1.15,2013-01-19 03:23:00,
2013-01-18 20:28:00,39.3,8.0,29.94,West,271,17.0,21.0,27,0.00,,,0.00,Wunderground v.1.15,2013-01-19 03:28:00,
2013-01-18 20:34:00,39.3,8.0,29.94,West,277,15.0,21.0,27,0.00,,,0.00,Wunderground v.1.15,2013-01-19 03:34:00,